Time,TemperatureF,DewpointF,PressureIn,WindDirection,WindDirectionDegrees,WindSpeedMPH,WindSpeedGustMPH,Humidity,HourlyPrecipIn,Conditions,Clouds,dailyrainin,SoftwareType,DateUTC
2013-06-10 00:03:00,55.8,50.7,29.85,NNW,343,0.0,0.0,83,0.00,,,0.00,Wunderground v.1.15,2013-06-10 07:03:00,
2013-06-10 00:08:00,55.9,50.5,29.85,NNW,343,0.0,0.0,82,0.00,,,0.00,Wunderground v.1.15,2013-06-10 07:08:00,
2013-06-10 00:13:00,56.1,50.7,29.85,NNW,344,0.0,0.0,82,0.00,,,0.00,Wunderground v.1.15,2013-06-10 07:13:00,
2013-06-10 00:19:00,56.2,50.8,29.85,NNW,345,0.0,0.0,82,0.00,,,0.00,Wunderground v.1.15,2013-06-10 07:19:00,
2013-06-10 00:25:00,56.2,50.8,29.85,East,87,1.0,1.0,82,0.00,,,0.00,Wunderground v.1.15,2013-06-10 07:25:00,
2013-06-10 00:31:00,56.2,50.8,29.86,NW,319,0.0,0.0,82,0.00,,,0.00,Wunderground v.1.15,2013-06-10 07:31:00,
2013-06-10 00:36:00,56.1,50.7,29.86,NNW,328,1.0,1.0,82,0.00,,,0.00,Wunderground v.1.15,2013-06-10 07:36:00,
2013-06-10 00:42:00,55.6,50.5,29.85,NNW,347,1.0,1.0,83,0.00,,,0.00,Wunderground v.1.15,2013-06-10 07:42:00,
2013-06-10 00:47:00,55.3,50.5,29.85,ENE,74,0.0,1.0,84,0.00,,,0.00,Wunderground v.1.15,2013-06-10 07:47:00,
2013-06-10 00:53:00,55.0,50.6,29.86,ESE,104,1.0,1.0,85,0.00,,,0.00,Wunderground v.1.15,2013-06-10 07:53:00,
2013-06-10 00:58:00,54.9,50.5,29.86,ENE,65,2.0,2.0,85,0.00,,,0.00,Wunderground v.1.15,2013-06-10 07:58:00,
2013-06-10 01:04:00,54.9,50.5,29.87,ENE,73,1.0,2.0,85,0.00,,,0.00,Wunderground v.1.15,2013-06-10 08:04:00,
2013-06-10 01:11:00,54.8,50.4,29.86,East,94,0.0,1.0,85,0.00,,,0.00,Wunderground v.1.15,2013-06-10 08:11:00,
2013-06-10 01:17:00,54.7,50.0,29.84,East,100,0.0,1.0,85,0.00,,,0.00,weatherlink.com 1.10,2013-06-10 08:17:00,
2013-06-10 01:22:00,54.7,50.3,29.85,ENE,73,0.0,1.0,85,0.00,,,0.00,Wunderground v.1.15,2013-06-10 08:22:00,
2013-06-10 01:27:00,54.8,50.4,29.85,NW,314,0.0,1.0,85,0.00,,,0.00,Wunderground v.1.15,2013-06-10 08:27:00,
2013-06-10 01:33:00,54.9,50.5,29.85,NW,314,0.0,0.0,85,0.00,,,0.00,Wunderground v.1.15,2013-06-10 08:33:00,
2013-06-10 01:38:00,55.1,50.7,29.85,NW,315,0.0,0.0,85,0.00,,,0.00,Wunderground v.1.15,2013-06-10 08:38:00,
2013-06-10 01:43:00,55.3,50.5,29.83,NW,315,0.0,0.0,84,0.00,,,0.00,Wunderground v.1.15,2013-06-10 08:43:00,
2013-06-10 01:49:00,55.5,50.7,29.83,East,83,0.0,1.0,84,0.00,,,0.00,Wunderground v.1.15,2013-06-10 08:49:00,
2013-06-10 01:55:00,55.7,50.9,29.81,East,83,0.0,0.0,84,0.00,,,0.00,Wunderground v.1.15,2013-06-10 08:55:00,
2013-06-10 02:00:00,55.8,50.7,29.81,East,83,0.0,0.0,83,0.00,,,0.00,Wunderground v.1.15,2013-06-10 09:00:00,
2013-06-10 02:05:00,56.0,50.9,29.79,North,4,1.0,1.0,83,0.00,,,0.00,Wunderground v.1.15,2013-06-10 09:05:00,
2013-06-10 02:10:00,56.1,50.7,29.78,SSW,203,1.0,1.0,82,0.00,,,0.00,Wunderground v.1.15,2013-06-10 09:10:00,
2013-06-10 02:15:00,56.3,50.5,29.78,ESE,117,0.0,3.0,81,0.00,,,0.00,Wunderground v.1.15,2013-06-10 09:15:00,
2013-06-10 02:20:00,56.5,50.7,29.79,WNW,286,0.0,1.0,81,0.00,,,0.00,Wunderground v.1.15,2013-06-10 09:20:00,
2013-06-10 02:25:00,56.7,50.9,29.78,SE,141,1.0,2.0,81,0.00,,,0.00,Wunderground v.1.15,2013-06-10 09:25:00,
2013-06-10 02:30:00,56.8,51.0,29.79,SSE,160,1.0,1.0,81,0.00,,,0.00,Wunderground v.1.15,2013-06-10 09:30:00,
2013-06-10 02:35:00,57.1,51.3,29.80,NNE,19,0.0,4.0,81,0.00,,,0.00,Wunderground v.1.15,2013-06-10 09:35:00,
2013-06-10 02:40:00,57.0,50.9,29.81,NE,51,0.0,1.0,80,0.00,,,0.00,Wunderground v.1.15,2013-06-10 09:40:00,
2013-06-10 02:45:00,56.8,51.0,29.82,ENE,67,4.0,4.0,81,0.00,,,0.00,Wunderground v.1.15,2013-06-10 09:45:00,
2013-06-10 02:50:00,56.5,50.7,29.83,ESE,115,2.0,6.0,81,0.00,,,0.00,Wunderground v.1.15,2013-06-10 09:50:00,
2013-06-10 02:55:00,55.9,50.8,29.84,East,94,2.0,6.0,83,0.00,,,0.00,Wunderground v.1.15,2013-06-10 09:55:00,
2013-06-10 03:01:00,55.8,50.7,29.84,West,281,0.0,2.0,83,0.00,,,0.00,Wunderground v.1.15,2013-06-10 10:01:00,
2013-06-10 03:06:00,55.9,50.8,29.84,NNW,329,2.0,3.0,83,0.00,,,0.00,Wunderground v.1.15,2013-06-10 10:06:00,
2013-06-10 03:11:00,56.1,51.0,29.84,NE,53,0.0,1.0,83,0.00,,,0.00,Wunderground v.1.15,2013-06-10 10:11:00,
2013-06-10 03:16:00,56.3,50.9,29.83,ESE,112,0.0,2.0,82,0.00,,,0.00,Wunderground v.1.15,2013-06-10 10:16:00,
2013-06-10 03:21:00,56.4,51.0,29.83,ESE,113,0.0,0.0,82,0.00,,,0.00,Wunderground v.1.15,2013-06-10 10:21:00,
2013-06-10 03:26:00,56.5,51.1,29.84,ESE,104,1.0,2.0,82,0.00,,,0.00,Wunderground v.1.15,2013-06-10 10:26:00,
2013-06-10 03:31:00,56.3,50.9,29.84,ESE,120,1.0,1.0,82,0.00,,,0.00,Wunderground v.1.15,2013-06-10 10:31:00,
2013-06-10 03:36:00,56.1,50.7,29.83,ENE,57,2.0,2.0,82,0.00,,,0.00,Wunderground v.1.15,2013-06-10 10:36:00,
2013-06-10 03:41:00,55.7,50.6,29.83,ESE,104,0.0,2.0,83,0.00,,,0.00,Wunderground v.1.15,2013-06-10 10:41:00,
2013-06-10 03:46:00,55.3,50.5,29.83,SSE,160,1.0,2.0,84,0.00,,,0.00,Wunderground v.1.15,2013-06-10 10:46:00,
2013-06-10 03:51:00,55.1,50.7,29.83,NE,44,2.0,2.0,85,0.00,,,0.00,Wunderground v.1.15,2013-06-10 10:51:00,
2013-06-10 03:56:00,54.9,50.5,29.83,SSE,153,1.0,2.0,85,0.00,,,0.00,Wunderground v.1.15,2013-06-10 10:56:00,
2013-06-10 04:01:00,54.9,50.5,29.83,ENE,77,2.0,2.0,85,0.00,,,0.00,Wunderground v.1.15,2013-06-10 11:01:00,
2013-06-10 04:06:00,54.9,50.5,29.83,West,272,0.0,2.0,85,0.00,,,0.00,Wunderground v.1.15,2013-06-10 11:06:00,
2013-06-10 04:11:00,55.0,50.6,29.83,ENE,61,1.0,1.0,85,0.00,,,0.00,Wunderground v.1.15,2013-06-10 11:11:00,
2013-06-10 04:16:00,54.9,50.5,29.83,SE,127,0.0,2.0,85,0.00,,,0.00,Wunderground v.1.15,2013-06-10 11:16:00,
2013-06-10 04:22:00,54.9,50.5,29.83,SSE,165,1.0,1.0,85,0.00,,,0.00,Wunderground v.1.15,2013-06-10 11:22:00,
2013-06-10 04:27:00,54.8,50.4,29.83,ESE,110,0.0,1.0,85,0.00,,,0.00,Wunderground v.1.15,2013-06-10 11:27:00,
2013-06-10 04:32:00,54.9,50.5,29.82,ESE,108,0.0,1.0,85,0.00,,,0.00,Wunderground v.1.15,2013-06-10 11:32:00,
2013-06-10 04:37:00,54.8,50.4,29.82,ESE,108,0.0,1.0,85,0.00,,,0.00,Wunderground v.1.15,2013-06-10 11:37:00,
2013-06-10 04:42:00,54.9,50.5,29.81,ESE,109,0.0,1.0,85,0.00,,,0.00,Wunderground v.1.15,2013-06-10 11:42:00,
2013-06-10 04:47:00,55.1,50.7,29.81,ESE,109,0.0,1.0,85,0.00,,,0.00,Wunderground v.1.15,2013-06-10 11:47:00,
2013-06-10 04:52:00,55.3,50.5,29.83,ESE,103,0.0,1.0,84,0.00,,,0.00,Wunderground v.1.15,2013-06-10 11:52:00,
2013-06-10 04:57:00,55.4,50.6,29.83,East,85,3.0,4.0,84,0.00,,,0.00,Wunderground v.1.15,2013-06-10 11:57:00,
2013-06-10 05:02:00,55.2,51.1,29.83,East,80,0.0,2.0,86,0.00,,,0.00,Wunderground v.1.15,2013-06-10 12:02:00,
2013-06-10 05:07:00,54.9,51.4,29.83,NNW,328,0.0,2.0,88,0.00,,,0.00,Wunderground v.1.15,2013-06-10 12:07:00,
2013-06-10 05:12:00,54.6,51.4,29.84,ESE,108,0.0,0.0,89,0.00,,,0.00,Wunderground v.1.15,2013-06-10 12:12:00,
2013-06-10 05:17:00,54.4,51.5,29.83,ESE,123,0.0,0.0,90,0.00,,,0.00,Wunderground v.1.15,2013-06-10 12:17:00,
2013-06-10 05:22:00,54.2,51.3,29.84,NE,51,0.0,0.0,90,0.00,,,0.00,Wunderground v.1.15,2013-06-10 12:22:00,
2013-06-10 05:27:00,54.1,51.2,29.83,SSE,150,0.0,1.0,90,0.00,,,0.00,Wunderground v.1.15,2013-06-10 12:27:00,
2013-06-10 05:32:00,53.8,51.2,29.83,NW,325,0.0,1.0,91,0.00,,,0.00,Wunderground v.1.15,2013-06-10 12:32:00,
2013-06-10 05:37:00,53.7,51.1,29.84,SW,218,1.0,1.0,91,0.00,,,0.00,Wunderground v.1.15,2013-06-10 12:37:00,
2013-06-10 05:42:00,53.6,51.0,29.84,North,5,0.0,2.0,91,0.00,,,0.00,Wunderground v.1.15,2013-06-10 12:42:00,
2013-06-10 05:47:00,53.6,51.3,29.84,South,181,0.0,2.0,92,0.00,,,0.00,Wunderground v.1.15,2013-06-10 12:47:00,
2013-06-10 05:52:00,53.6,51.0,29.83,SSE,152,0.0,1.0,91,0.00,,,0.00,Wunderground v.1.15,2013-06-10 12:52:00,
2013-06-10 05:57:00,53.6,51.0,29.84,SSE,152,0.0,1.0,91,0.00,,,0.00,Wunderground v.1.15,2013-06-10 12:57:00,
2013-06-10 06:02:00,53.7,51.4,29.84,SSE,152,0.0,1.0,92,0.00,,,0.00,Wunderground v.1.15,2013-06-10 13:02:00,
2013-06-10 06:07:00,53.8,51.2,29.84,East,96,1.0,1.0,91,0.00,,,0.00,Wunderground v.1.15,2013-06-10 13:07:00,
2013-06-10 06:12:00,53.7,51.1,29.84,East,96,0.0,1.0,91,0.00,,,0.00,Wunderground v.1.15,2013-06-10 13:12:00,
2013-06-10 06:17:00,53.8,51.2,29.84,ESE,113,1.0,1.0,91,0.00,,,0.00,Wunderground v.1.15,2013-06-10 13:17:00,
2013-06-10 06:22:00,53.8,51.2,29.84,SE,124,0.0,1.0,91,0.00,,,0.00,Wunderground v.1.15,2013-06-10 13:22:00,
2013-06-10 06:27:00,53.8,51.2,29.83,SE,124,0.0,1.0,91,0.00,,,0.00,Wunderground v.1.15,2013-06-10 13:27:00,
2013-06-10 06:32:00,53.8,51.2,29.84,NW,319,1.0,2.0,91,0.00,,,0.00,Wunderground v.1.15,2013-06-10 13:32:00,
2013-06-10 06:37:00,53.7,51.1,29.85,East,94,0.0,2.0,91,0.00,,,0.00,Wunderground v.1.15,2013-06-10 13:37:00,
2013-06-10 06:42:00,53.4,50.8,29.85,ENE,77,0.0,1.0,91,0.00,,,0.00,Wunderground v.1.15,2013-06-10 13:42:00,
2013-06-10 06:47:00,53.3,51.0,29.85,East,86,2.0,2.0,92,0.00,,,0.00,Wunderground v.1.15,2013-06-10 13:47:00,
2013-06-10 06:52:00,53.1,50.8,29.85,NNW,327,0.0,1.0,92,0.00,,,0.00,Wunderground v.1.15,2013-06-10 13:52:00,
2013-06-10 06:57:00,53.0,50.7,29.85,ESE,105,0.0,1.0,92,0.00,,,0.00,Wunderground v.1.15,2013-06-10 13:57:00,
2013-06-10 07:02:00,52.9,50.9,29.85,ENE,78,1.0,2.0,93,0.00,,,0.00,Wunderground v.1.15,2013-06-10 14:02:00,
2013-06-10 07:07:00,52.8,50.5,29.86,North,349,0.0,2.0,92,0.00,,,0.00,Wunderground v.1.15,2013-06-10 14:07:00,
2013-06-10 07:12:00,52.7,50.7,29.85,ENE,75,0.0,1.0,93,0.00,,,0.01,Wunderground v.1.15,2013-06-10 14:12:00,
2013-06-10 07:18:00,52.7,50.7,29.85,ENE,75,0.0,1.0,93,0.00,,,0.01,Wunderground v.1.15,2013-06-10 14:18:00,
2013-06-10 07:23:00,52.9,50.9,29.85,SE,136,0.0,0.0,93,0.00,,,0.01,Wunderground v.1.15,2013-06-10 14:23:00,
2013-06-10 07:28:00,53.2,51.5,29.87,SE,135,1.0,1.0,94,0.00,,,0.01,Wunderground v.1.15,2013-06-10 14:28:00,
2013-06-10 07:33:00,53.1,51.1,29.87,NNE,16,1.0,3.0,93,0.00,,,0.01,Wunderground v.1.15,2013-06-10 14:33:00,
2013-06-10 07:38:00,52.8,50.8,29.86,East,81,0.0,3.0,93,0.00,,,0.01,Wunderground v.1.15,2013-06-10 14:38:00,
2013-06-10 07:43:00,52.8,50.8,29.86,East,94,0.0,1.0,93,0.00,,,0.01,Wunderground v.1.15,2013-06-10 14:43:00,
2013-06-10 07:48:00,52.8,50.8,29.86,East,94,0.0,1.0,93,0.00,,,0.01,Wunderground v.1.15,2013-06-10 14:48:00,
2013-06-10 07:53:00,52.7,50.7,29.86,East,93,0.0,1.0,93,0.00,,,0.01,Wunderground v.1.15,2013-06-10 14:53:00,
2013-06-10 07:58:00,52.7,51.0,29.86,NW,319,0.0,2.0,94,0.00,,,0.01,Wunderground v.1.15,2013-06-10 14:58:00,
2013-06-10 08:03:00,52.6,50.6,29.87,NW,316,0.0,1.0,93,0.00,,,0.01,Wunderground v.1.15,2013-06-10 15:03:00,
2013-06-10 08:08:00,52.6,50.9,29.87,NW,316,1.0,1.0,94,0.00,,,0.01,Wunderground v.1.15,2013-06-10 15:08:00,
2013-06-10 08:13:00,52.7,51.0,29.86,NW,316,0.0,0.0,94,0.00,,,0.01,Wunderground v.1.15,2013-06-10 15:13:00,
2013-06-10 08:18:00,52.8,51.1,29.86,NW,316,0.0,0.0,94,0.00,,,0.02,Wunderground v.1.15,2013-06-10 15:18:00,
2013-06-10 08:23:00,52.9,51.2,29.87,NNE,30,0.0,2.0,94,0.00,,,0.02,Wunderground v.1.15,2013-06-10 15:23:00,
2013-06-10 08:28:00,52.9,50.9,29.86,East,84,0.0,2.0,93,0.00,,,0.02,Wunderground v.1.15,2013-06-10 15:28:00,
2013-06-10 08:33:00,53.0,51.3,29.87,East,85,1.0,1.0,94,0.00,,,0.02,Wunderground v.1.15,2013-06-10 15:33:00,
2013-06-10 08:38:00,53.0,51.3,29.86,East,90,0.0,2.0,94,0.00,,,0.02,Wunderground v.1.15,2013-06-10 15:38:00,
2013-06-10 08:43:00,52.9,50.9,29.85,East,90,3.0,3.0,93,0.00,,,0.02,Wunderground v.1.15,2013-06-10 15:43:00,
2013-06-10 08:48:00,52.6,50.6,29.87,WNW,285,1.0,3.0,93,0.00,,,0.02,Wunderground v.1.15,2013-06-10 15:48:00,
2013-06-10 08:53:00,52.5,50.5,29.87,East,81,0.0,3.0,93,0.00,,,0.02,Wunderground v.1.15,2013-06-10 15:53:00,
2013-06-10 08:58:00,52.5,50.5,29.88,NW,312,0.0,3.0,93,0.00,,,0.02,Wunderground v.1.15,2013-06-10 15:58:00,
2013-06-10 09:03:00,52.4,50.7,29.88,NW,314,0.0,1.0,94,0.00,,,0.02,Wunderground v.1.15,2013-06-10 16:03:00,
2013-06-10 09:08:00,52.6,50.9,29.87,East,84,1.0,1.0,94,0.00,,,0.02,Wunderground v.1.15,2013-06-10 16:08:00,
2013-06-10 09:13:00,52.8,51.1,29.88,East,101,0.0,1.0,94,0.00,,,0.02,Wunderground v.1.15,2013-06-10 16:13:00,
2013-06-10 09:18:00,53.0,51.3,29.89,East,81,0.0,1.0,94,0.00,,,0.02,Wunderground v.1.15,2013-06-10 16:18:00,
2013-06-10 09:23:00,53.2,51.5,29.89,East,83,3.0,3.0,94,0.00,,,0.02,Wunderground v.1.15,2013-06-10 16:23:00,
2013-06-10 09:28:00,52.8,50.8,29.90,East,82,3.0,4.0,93,0.00,,,0.02,Wunderground v.1.15,2013-06-10 16:28:00,
2013-06-10 09:33:00,52.6,50.9,29.90,East,90,1.0,6.0,94,0.00,,,0.03,Wunderground v.1.15,2013-06-10 16:33:00,
2013-06-10 09:38:00,52.6,50.9,29.90,WSW,245,0.0,6.0,94,0.00,,,0.03,Wunderground v.1.15,2013-06-10 16:38:00,
2013-06-10 09:43:00,52.9,51.5,29.90,NE,51,0.0,2.0,95,0.00,,,0.03,Wunderground v.1.15,2013-06-10 16:43:00,
2013-06-10 09:48:00,53.3,51.9,29.89,West,268,0.0,2.0,95,0.00,,,0.03,Wunderground v.1.15,2013-06-10 16:48:00,
2013-06-10 09:53:00,53.6,52.2,29.90,East,100,0.0,2.0,95,0.00,,,0.03,Wunderground v.1.15,2013-06-10 16:53:00,
2013-06-10 09:58:00,53.9,52.2,29.90,ENE,71,1.0,2.0,94,0.00,,,0.03,Wunderground v.1.15,2013-06-10 16:58:00,
2013-06-10 10:03:00,54.2,52.5,29.91,ESE,105,0.0,4.0,94,0.00,,,0.03,Wunderground v.1.15,2013-06-10 17:03:00,
2013-06-10 10:08:00,54.4,52.4,29.90,SSE,152,1.0,4.0,93,0.00,,,0.03,Wunderground v.1.15,2013-06-10 17:08:00,
2013-06-10 10:13:00,54.6,52.6,29.92,East,81,1.0,2.0,93,0.00,,,0.03,Wunderground v.1.15,2013-06-10 17:13:00,
2013-06-10 10:18:00,54.6,52.6,29.91,SE,125,0.0,2.0,93,0.00,,,0.03,Wunderground v.1.15,2013-06-10 17:18:00,
2013-06-10 10:23:00,54.8,52.8,29.91,East,91,0.0,1.0,93,0.00,,,0.03,Wunderground v.1.15,2013-06-10 17:23:00,
2013-06-10 10:28:00,54.7,52.4,29.91,East,99,0.0,2.0,92,0.00,,,0.03,Wunderground v.1.15,2013-06-10 17:28:00,
2013-06-10 10:33:00,54.6,52.3,29.89,SE,124,0.0,1.0,92,0.00,,,0.03,Wunderground v.1.15,2013-06-10 17:33:00,
2013-06-10 10:38:00,54.5,52.5,29.90,ESE,102,0.0,2.0,93,0.00,,,0.03,Wunderground v.1.15,2013-06-10 17:38:00,
2013-06-10 10:43:00,54.4,52.1,29.90,SE,136,1.0,3.0,92,0.00,,,0.03,Wunderground v.1.15,2013-06-10 17:43:00,
2013-06-10 10:48:00,54.2,51.9,29.90,ESE,102,1.0,3.0,92,0.00,,,0.03,Wunderground v.1.15,2013-06-10 17:48:00,
2013-06-10 10:53:00,54.0,51.7,29.91,SE,131,2.0,4.0,92,0.00,,,0.03,Wunderground v.1.15,2013-06-10 17:53:00,
2013-06-10 10:58:00,53.8,51.5,29.91,ESE,120,1.0,4.0,92,0.00,,,0.03,Wunderground v.1.15,2013-06-10 17:58:00,
2013-06-10 11:03:00,53.7,51.4,29.90,ESE,113,1.0,5.0,92,0.00,,,0.03,Wunderground v.1.15,2013-06-10 18:03:00,
2013-06-10 11:09:00,53.7,51.4,29.91,SE,141,1.0,5.0,92,0.00,,,0.03,Wunderground v.1.15,2013-06-10 18:09:00,
2013-06-10 11:14:00,53.8,51.5,29.92,SE,130,2.0,2.0,92,0.00,,,0.03,Wunderground v.1.15,2013-06-10 18:14:00,
2013-06-10 11:19:00,53.8,51.2,29.91,East,94,2.0,4.0,91,0.00,,,0.03,Wunderground v.1.15,2013-06-10 18:19:00,
2013-06-10 11:24:00,53.8,51.5,29.92,SSE,158,0.0,2.0,92,0.00,,,0.03,Wunderground v.1.15,2013-06-10 18:24:00,
2013-06-10 11:29:00,53.9,51.6,29.92,ESE,110,0.0,2.0,92,0.00,,,0.03,Wunderground v.1.15,2013-06-10 18:29:00,
2013-06-10 11:34:00,54.2,51.6,29.92,SE,127,0.0,1.0,91,0.00,,,0.03,Wunderground v.1.15,2013-06-10 18:34:00,
2013-06-10 11:39:00,54.2,51.3,29.92,ESE,105,1.0,3.0,90,0.00,,,0.03,Wunderground v.1.15,2013-06-10 18:39:00,
2013-06-10 11:44:00,54.4,51.5,29.92,SE,135,2.0,2.0,90,0.00,,,0.03,Wunderground v.1.15,2013-06-10 18:44:00,
2013-06-10 11:49:00,54.7,52.1,29.92,ESE,106,0.0,2.0,91,0.00,,,0.03,Wunderground v.1.15,2013-06-10 18:49:00,
2013-06-10 11:54:00,55.3,52.4,29.93,SE,137,1.0,1.0,90,0.00,,,0.03,Wunderground v.1.15,2013-06-10 18:54:00,
2013-06-10 11:59:00,55.8,52.9,29.94,ENE,77,1.0,1.0,90,0.00,,,0.03,Wunderground v.1.15,2013-06-10 18:59:00,
2013-06-10 12:04:00,55.6,52.1,29.94,NNE,27,0.0,2.0,88,0.00,,,0.03,Wunderground v.1.15,2013-06-10 19:04:00,
2013-06-10 12:09:00,55.4,52.5,29.94,North,355,0.0,3.0,90,0.00,,,0.03,Wunderground v.1.15,2013-06-10 19:09:00,
2013-06-10 12:14:00,55.4,52.5,29.94,ESE,116,0.0,1.0,90,0.00,,,0.03,Wunderground v.1.15,2013-06-10 19:14:00,
2013-06-10 12:19:00,55.4,52.8,29.94,SSE,155,2.0,2.0,91,0.00,,,0.03,Wunderground v.1.15,2013-06-10 19:19:00,
2013-06-10 12:24:00,55.2,52.3,29.94,SSE,159,0.0,6.0,90,0.00,,,0.03,Wunderground v.1.15,2013-06-10 19:24:00,
2013-06-10 12:30:00,55.0,52.1,29.94,East,96,1.0,1.0,90,0.00,,,0.03,Wunderground v.1.15,2013-06-10 19:30:00,
2013-06-10 12:35:00,54.8,51.9,29.94,SE,139,0.0,5.0,90,0.00,,,0.03,Wunderground v.1.15,2013-06-10 19:35:00,
2013-06-10 12:40:00,54.4,51.5,29.94,SE,127,1.0,2.0,90,0.00,,,0.03,Wunderground v.1.15,2013-06-10 19:40:00,
2013-06-10 12:45:00,54.3,51.4,29.94,NE,48,2.0,4.0,90,0.00,,,0.03,Wunderground v.1.15,2013-06-10 19:45:00,
2013-06-10 12:50:00,54.3,51.4,29.94,East,86,1.0,2.0,90,0.00,,,0.03,Wunderground v.1.15,2013-06-10 19:50:00,
2013-06-10 12:55:00,54.7,52.1,29.94,North,354,1.0,3.0,91,0.00,,,0.03,Wunderground v.1.15,2013-06-10 19:55:00,
2013-06-10 13:00:00,55.5,52.6,29.93,ENE,63,2.0,3.0,90,0.00,,,0.03,Wunderground v.1.15,2013-06-10 20:00:00,
2013-06-10 13:05:00,56.3,52.5,29.93,SE,124,1.0,5.0,87,0.00,,,0.03,Wunderground v.1.15,2013-06-10 20:05:00,
2013-06-10 13:10:00,57.1,53.3,29.94,ENE,71,1.0,2.0,87,0.00,,,0.03,Wunderground v.1.15,2013-06-10 20:10:00,
2013-06-10 13:15:00,57.6,52.8,29.94,SSE,157,0.0,3.0,84,0.00,,,0.03,Wunderground v.1.15,2013-06-10 20:15:00,
2013-06-10 13:20:00,58.3,52.8,29.94,SE,131,2.0,3.0,82,0.00,,,0.03,Wunderground v.1.15,2013-06-10 20:20:00,
2013-06-10 13:25:00,58.5,53.0,29.94,ESE,102,0.0,3.0,82,0.00,,,0.03,Wunderground v.1.15,2013-06-10 20:25:00,
2013-06-10 13:30:00,58.7,52.9,29.94,SE,138,2.0,3.0,81,0.00,,,0.03,Wunderground v.1.15,2013-06-10 20:30:00,
2013-06-10 13:35:00,58.9,53.1,29.94,SSE,148,2.0,3.0,81,0.00,,,0.03,Wunderground v.1.15,2013-06-10 20:35:00,
2013-06-10 13:40:00,59.3,53.5,29.94,SE,139,1.0,1.0,81,0.00,,,0.03,Wunderground v.1.15,2013-06-10 20:40:00,
2013-06-10 13:45:00,59.6,53.8,29.94,East,98,1.0,5.0,81,0.00,,,0.03,Wunderground v.1.15,2013-06-10 20:45:00,
2013-06-10 13:50:00,60.3,53.8,29.94,East,81,5.0,5.0,79,0.00,,,0.03,Wunderground v.1.15,2013-06-10 20:50:00,
2013-06-10 13:55:00,60.5,54.0,29.94,ESE,122,1.0,6.0,79,0.00,,,0.03,Wunderground v.1.15,2013-06-10 20:55:00,
2013-06-10 14:00:00,60.5,53.6,29.94,East,92,3.0,7.0,78,0.00,,,0.03,Wunderground v.1.15,2013-06-10 21:00:00,
2013-06-10 14:05:00,60.8,53.9,29.94,SE,131,3.0,7.0,78,0.00,,,0.03,Wunderground v.1.15,2013-06-10 21:05:00,
2013-06-10 14:10:00,60.7,53.8,29.94,ESE,102,1.0,3.0,78,0.00,,,0.03,Wunderground v.1.15,2013-06-10 21:10:00,
2013-06-10 14:15:00,60.6,53.7,29.94,SE,129,1.0,5.0,78,0.00,,,0.03,Wunderground v.1.15,2013-06-10 21:15:00,
2013-06-10 14:20:00,61.2,54.3,29.94,ESE,114,4.0,5.0,78,0.00,,,0.03,Wunderground v.1.15,2013-06-10 21:20:00,
2013-06-10 14:25:00,61.2,54.3,29.94,North,350,2.0,5.0,78,0.00,,,0.03,Wunderground v.1.15,2013-06-10 21:25:00,
2013-06-10 14:30:00,61.3,54.0,29.94,ESE,104,3.0,4.0,77,0.00,,,0.03,Wunderground v.1.15,2013-06-10 21:30:00,
2013-06-10 14:35:00,61.0,53.7,29.94,ENE,70,4.0,6.0,77,0.00,,,0.03,Wunderground v.1.15,2013-06-10 21:35:00,
2013-06-10 14:40:00,61.0,53.4,29.93,East,98,2.0,3.0,76,0.00,,,0.03,Wunderground v.1.15,2013-06-10 21:40:00,
2013-06-10 14:45:00,60.7,53.4,29.94,East,92,4.0,6.0,77,0.00,,,0.03,Wunderground v.1.15,2013-06-10 21:45:00,
2013-06-10 14:50:00,60.7,53.1,29.94,SSE,165,1.0,3.0,76,0.00,,,0.03,Wunderground v.1.15,2013-06-10 21:50:00,
2013-06-10 14:55:00,60.6,53.0,29.94,East,98,4.0,8.0,76,0.00,,,0.03,Wunderground v.1.15,2013-06-10 21:55:00,
2013-06-10 15:00:00,60.4,52.8,29.94,East,94,5.0,7.0,76,0.00,,,0.03,Wunderground v.1.15,2013-06-10 22:00:00,
2013-06-10 15:05:00,60.2,53.0,29.94,SE,141,1.0,9.0,77,0.00,,,0.03,Wunderground v.1.15,2013-06-10 22:05:00,
2013-06-10 15:11:00,60.2,52.2,29.94,ESE,104,5.0,5.0,75,0.00,,,0.03,Wunderground v.1.15,2013-06-10 22:11:00,
2013-06-10 15:16:00,59.6,52.4,29.94,SE,131,2.0,11.0,77,0.00,,,0.03,Wunderground v.1.15,2013-06-10 22:16:00,
2013-06-10 15:21:00,59.5,52.3,29.95,ESE,120,3.0,8.0,77,0.00,,,0.03,Wunderground v.1.15,2013-06-10 22:21:00,
2013-06-10 15:26:00,59.2,52.0,29.94,ESE,118,3.0,8.0,77,0.00,,,0.03,Wunderground v.1.15,2013-06-10 22:26:00,
2013-06-10 15:32:00,59.3,52.4,29.94,East,98,5.0,5.0,78,0.00,,,0.03,Wunderground v.1.15,2013-06-10 22:32:00,
2013-06-10 15:36:00,59.2,52.3,29.94,SSE,156,2.0,7.0,78,0.00,,,0.03,Wunderground v.1.15,2013-06-10 22:36:00,
2013-06-10 15:42:00,58.9,52.1,29.94,SE,124,3.0,6.0,78,0.00,,,0.03,Wunderground v.1.15,2013-06-10 22:42:00,
2013-06-10 15:47:00,59.0,52.5,29.95,ESE,102,7.0,7.0,79,0.00,,,0.03,Wunderground v.1.15,2013-06-10 22:47:00,
2013-06-10 15:52:00,58.9,52.1,29.95,ESE,112,2.0,8.0,78,0.00,,,0.03,Wunderground v.1.15,2013-06-10 22:52:00,
2013-06-10 15:57:00,58.7,52.2,29.95,ESE,105,2.0,8.0,79,0.00,,,0.03,Wunderground v.1.15,2013-06-10 22:57:00,
2013-06-10 16:02:00,59.0,52.5,29.95,ESE,110,3.0,6.0,79,0.00,,,0.03,Wunderground v.1.15,2013-06-10 23:02:00,
2013-06-10 16:07:00,59.2,52.3,29.95,ESE,105,4.0,6.0,78,0.00,,,0.03,Wunderground v.1.15,2013-06-10 23:07:00,
2013-06-10 16:12:00,59.0,52.1,29.95,SE,132,3.0,4.0,78,0.00,,,0.03,Wunderground v.1.15,2013-06-10 23:12:00,
2013-06-10 16:17:00,58.5,52.0,29.95,SE,141,3.0,9.0,79,0.00,,,0.03,Wunderground v.1.15,2013-06-10 23:17:00,
2013-06-10 16:22:00,57.9,51.8,29.95,SSE,155,2.0,6.0,80,0.00,,,0.03,Wunderground v.1.15,2013-06-10 23:22:00,
2013-06-10 16:27:00,57.8,51.7,29.95,East,94,2.0,6.0,80,0.00,,,0.03,Wunderground v.1.15,2013-06-10 23:27:00,
2013-06-10 16:32:00,57.7,51.6,29.95,ENE,78,4.0,5.0,80,0.00,,,0.03,Wunderground v.1.15,2013-06-10 23:32:00,
2013-06-10 16:37:00,58.0,51.5,29.95,SE,145,4.0,5.0,79,0.00,,,0.03,Wunderground v.1.15,2013-06-10 23:37:00,
2013-06-10 16:42:00,58.2,52.1,29.95,SE,124,3.0,6.0,80,0.00,,,0.03,Wunderground v.1.15,2013-06-10 23:42:00,
2013-06-10 16:47:00,58.5,52.0,29.95,ESE,111,2.0,6.0,79,0.00,,,0.03,Wunderground v.1.15,2013-06-10 23:47:00,
2013-06-10 16:52:00,58.8,52.0,29.95,East,82,3.0,4.0,78,0.00,,,0.03,Wunderground v.1.15,2013-06-10 23:52:00,
2013-06-10 16:57:00,59.1,51.9,29.94,SE,129,1.0,5.0,77,0.00,,,0.03,Wunderground v.1.15,2013-06-10 23:57:00,
2013-06-10 17:02:00,59.5,52.3,29.94,ESE,108,3.0,5.0,77,0.00,,,0.03,Wunderground v.1.15,2013-06-11 00:02:00,
2013-06-10 17:07:00,59.8,52.2,29.94,NNW,328,1.0,5.0,76,0.00,,,0.03,Wunderground v.1.15,2013-06-11 00:07:00,
2013-06-10 17:12:00,60.0,52.4,29.94,ENE,77,1.0,5.0,76,0.00,,,0.03,Wunderground v.1.15,2013-06-11 00:12:00,
2013-06-10 17:17:00,60.0,52.1,29.94,ESE,107,4.0,5.0,75,0.00,,,0.03,Wunderground v.1.15,2013-06-11 00:17:00,
2013-06-10 17:22:00,60.1,52.5,29.95,SSW,212,2.0,4.0,76,0.00,,,0.03,Wunderground v.1.15,2013-06-11 00:22:00,
2013-06-10 17:27:00,60.3,52.7,29.95,East,95,2.0,5.0,76,0.00,,,0.03,Wunderground v.1.15,2013-06-11 00:27:00,
2013-06-10 17:32:00,60.7,53.1,29.95,East,94,0.0,1.0,76,0.00,,,0.03,Wunderground v.1.15,2013-06-11 00:32:00,
2013-06-10 17:37:00,61.1,53.1,29.95,ESE,104,2.0,3.0,75,0.00,,,0.03,Wunderground v.1.15,2013-06-11 00:37:00,
2013-06-10 17:42:00,61.3,53.7,29.94,East,84,1.0,4.0,76,0.00,,,0.03,Wunderground v.1.15,2013-06-11 00:42:00,
2013-06-10 17:47:00,61.0,53.7,29.94,WSW,240,0.0,4.0,77,0.00,,,0.03,Wunderground v.1.15,2013-06-11 00:47:00,
2013-06-10 17:52:00,60.9,53.6,29.94,East,94,2.0,2.0,77,0.00,,,0.03,Wunderground v.1.15,2013-06-11 00:52:00,
2013-06-10 17:57:00,60.5,53.6,29.94,East,94,2.0,4.0,78,0.00,,,0.03,Wunderground v.1.15,2013-06-11 00:57:00,
2013-06-10 18:02:00,60.4,53.2,29.94,ENE,65,0.0,6.0,77,0.00,,,0.03,Wunderground v.1.15,2013-06-11 01:02:00,
2013-06-10 18:07:00,60.2,53.3,29.94,East,82,2.0,6.0,78,0.00,,,0.03,Wunderground v.1.15,2013-06-11 01:07:00,
2013-06-10 18:12:00,60.0,53.1,29.94,ENE,71,2.0,4.0,78,0.00,,,0.03,Wunderground v.1.15,2013-06-11 01:12:00,
2013-06-10 18:17:00,59.8,52.9,29.94,ENE,72,3.0,4.0,78,0.00,,,0.03,Wunderground v.1.15,2013-06-11 01:17:00,
2013-06-10 18:22:00,59.7,52.8,29.94,ENE,63,1.0,4.0,78,0.00,,,0.03,Wunderground v.1.15,2013-06-11 01:22:00,
2013-06-10 18:27:00,59.8,52.9,29.94,ESE,111,0.0,4.0,78,0.00,,,0.03,Wunderground v.1.15,2013-06-11 01:27:00,
2013-06-10 18:32:00,59.7,52.8,29.94,NE,40,0.0,2.0,78,0.00,,,0.03,Wunderground v.1.15,2013-06-11 01:32:00,
2013-06-10 18:37:00,59.8,53.3,29.94,East,94,2.0,3.0,79,0.00,,,0.03,Wunderground v.1.15,2013-06-11 01:37:00,
2013-06-10 18:42:00,59.9,53.0,29.94,East,85,1.0,2.0,78,0.00,,,0.03,Wunderground v.1.15,2013-06-11 01:42:00,
2013-06-10 18:47:00,59.6,52.7,29.94,NE,53,1.0,3.0,78,0.00,,,0.03,Wunderground v.1.15,2013-06-11 01:47:00,
2013-06-10 18:52:00,59.1,52.6,29.94,ENE,73,2.0,3.0,79,0.00,,,0.03,Wunderground v.1.15,2013-06-11 01:52:00,
2013-06-10 18:58:00,58.9,52.7,29.94,SE,146,1.0,4.0,80,0.00,,,0.03,Wunderground v.1.15,2013-06-11 01:58:00,
2013-06-10 19:03:00,58.8,52.6,29.94,NNE,18,0.0,4.0,80,0.00,,,0.03,Wunderground v.1.15,2013-06-11 02:03:00,
2013-06-10 19:08:00,58.7,52.2,29.94,ENE,58,1.0,4.0,79,0.00,,,0.03,Wunderground v.1.15,2013-06-11 02:08:00,
2013-06-10 19:13:00,58.5,52.4,29.94,NNW,330,0.0,1.0,80,0.00,,,0.03,Wunderground v.1.15,2013-06-11 02:13:00,
2013-06-10 19:18:00,58.3,52.2,29.94,East,100,1.0,3.0,80,0.00,,,0.03,Wunderground v.1.15,2013-06-11 02:18:00,
2013-06-10 19:23:00,58.0,52.2,29.94,NE,53,2.0,2.0,81,0.00,,,0.03,Wunderground v.1.15,2013-06-11 02:23:00,
2013-06-10 19:28:00,57.8,52.0,29.94,ESE,108,0.0,2.0,81,0.00,,,0.03,Wunderground v.1.15,2013-06-11 02:28:00,
2013-06-10 19:33:00,57.8,52.3,29.94,ESE,108,0.0,1.0,82,0.00,,,0.03,Wunderground v.1.15,2013-06-11 02:33:00,
2013-06-10 19:38:00,57.7,52.2,29.94,ESE,108,0.0,1.0,82,0.00,,,0.03,Wunderground v.1.15,2013-06-11 02:38:00,
2013-06-10 19:43:00,57.7,52.2,29.94,SE,143,1.0,1.0,82,0.00,,,0.03,Wunderground v.1.15,2013-06-11 02:43:00,
2013-06-10 19:48:00,57.5,52.0,29.94,ENE,73,0.0,1.0,82,0.00,,,0.03,Wunderground v.1.15,2013-06-11 02:48:00,
2013-06-10 19:53:00,57.4,52.3,29.95,ENE,74,0.0,0.0,83,0.00,,,0.03,Wunderground v.1.15,2013-06-11 02:53:00,
2013-06-10 19:58:00,57.1,52.0,29.94,ENE,72,0.0,1.0,83,0.00,,,0.03,Wunderground v.1.15,2013-06-11 02:58:00,
2013-06-10 20:03:00,56.9,51.8,29.94,East,81,0.0,1.0,83,0.00,,,0.03,Wunderground v.1.15,2013-06-11 03:03:00,
2013-06-10 20:08:00,56.6,51.8,29.95,East,79,0.0,1.0,84,0.00,,,0.03,Wunderground v.1.15,2013-06-11 03:08:00,
2013-06-10 20:13:00,56.2,51.4,29.95,East,82,1.0,1.0,84,0.00,,,0.03,Wunderground v.1.15,2013-06-11 03:13:00,
2013-06-10 20:18:00,55.9,51.5,29.95,East,84,0.0,1.0,85,0.00,,,0.03,Wunderground v.1.15,2013-06-11 03:18:00,
2013-06-10 20:23:00,55.7,51.3,29.95,ESE,112,1.0,1.0,85,0.00,,,0.03,Wunderground v.1.15,2013-06-11 03:23:00,
2013-06-10 20:28:00,55.4,51.3,29.95,ESE,113,0.0,1.0,86,0.00,,,0.03,Wunderground v.1.15,2013-06-11 03:28:00,
2013-06-10 20:33:00,55.1,51.0,29.95,ESE,113,0.0,0.0,86,0.00,,,0.03,Wunderground v.1.15,2013-06-11 03:33:00,
2013-06-10 20:38:00,54.9,51.1,29.95,ESE,104,1.0,2.0,87,0.00,,,0.03,Wunderground v.1.15,2013-06-11 03:38:00,
2013-06-10 20:43:00,54.7,50.9,29.95,ENE,75,0.0,0.0,87,0.00,,,0.03,Wunderground v.1.15,2013-06-11 03:43:00,
2013-06-10 20:48:00,54.5,51.0,29.95,ENE,75,0.0,0.0,88,0.00,,,0.03,Wunderground v.1.15,2013-06-11 03:48:00,
2013-06-10 20:53:00,54.3,50.8,29.95,ENE,75,0.0,0.0,88,0.00,,,0.03,Wunderground v.1.15,2013-06-11 03:53:00,
2013-06-10 20:58:00,54.1,50.6,29.96,ENE,75,0.0,0.0,88,0.00,,,0.03,Wunderground v.1.15,2013-06-11 03:58:00,
2013-06-10 21:01:00,54.0,50.5,29.96,ENE,75,0.0,0.0,88,0.00,,,0.03,Wunderground v.1.15,2013-06-11 04:01:00,
2013-06-10 21:06:00,53.7,50.2,29.96,ENE,75,0.0,0.0,88,0.00,,,0.03,Wunderground v.1.15,2013-06-11 04:06:00,
2013-06-10 21:11:00,53.5,50.3,29.96,ENE,75,0.0,0.0,89,0.00,,,0.03,Wunderground v.1.15,2013-06-11 04:11:00,
2013-06-10 21:16:00,53.3,50.1,29.96,ENE,75,0.0,0.0,89,0.00,,,0.03,Wunderground v.1.15,2013-06-11 04:16:00,
2013-06-10 21:22:00,53.3,50.4,29.96,ENE,75,0.0,0.0,90,0.00,,,0.03,Wunderground v.1.15,2013-06-11 04:22:00,
2013-06-10 21:27:00,53.3,50.4,29.96,ENE,75,0.0,0.0,90,0.00,,,0.03,Wunderground v.1.15,2013-06-11 04:27:00,
2013-06-10 21:32:00,53.2,50.3,29.96,ENE,75,0.0,0.0,90,0.00,,,0.03,Wunderground v.1.15,2013-06-11 04:32:00,
2013-06-10 21:37:00,53.1,50.2,29.96,ENE,75,0.0,0.0,90,0.00,,,0.03,Wunderground v.1.15,2013-06-11 04:37:00,
2013-06-10 21:42:00,53.0,50.1,29.96,ENE,75,0.0,0.0,90,0.00,,,0.03,Wunderground v.1.15,2013-06-11 04:42:00,
2013-06-10 21:47:00,52.7,49.8,29.96,ENE,75,0.0,0.0,90,0.00,,,0.03,Wunderground v.1.15,2013-06-11 04:47:00,
2013-06-10 21:52:00,52.3,49.2,29.96,ENE,75,0.0,0.0,89,0.00,,,0.03,Wunderground v.1.15,2013-06-11 04:52:00,
2013-06-10 21:57:00,52.0,49.2,29.96,ENE,75,0.0,0.0,90,0.00,,,0.03,Wunderground v.1.15,2013-06-11 04:57:00,
2013-06-10 22:02:00,52.0,49.5,29.97,ENE,75,0.0,0.0,91,0.00,,,0.03,Wunderground v.1.15,2013-06-11 05:02:00,
2013-06-10 22:07:00,51.7,49.2,29.96,ENE,75,0.0,0.0,91,0.00,,,0.03,Wunderground v.1.15,2013-06-11 05:07:00,
2013-06-10 22:12:00,51.6,49.1,29.97,ENE,75,0.0,0.0,91,0.00,,,0.03,Wunderground v.1.15,2013-06-11 05:12:00,
2013-06-10 22:17:00,51.5,49.3,29.97,ENE,75,0.0,0.0,92,0.00,,,0.03,Wunderground v.1.15,2013-06-11 05:17:00,
2013-06-10 22:22:00,51.3,48.8,29.97,ENE,75,0.0,0.0,91,0.00,,,0.03,Wunderground v.1.15,2013-06-11 05:22:00,
2013-06-10 22:27:00,51.4,49.4,29.97,ENE,75,0.0,0.0,93,0.00,,,0.03,Wunderground v.1.15,2013-06-11 05:27:00,
2013-06-10 22:32:00,51.3,49.1,29.97,ENE,75,0.0,0.0,92,0.00,,,0.03,Wunderground v.1.15,2013-06-11 05:32:00,
2013-06-10 22:37:00,51.1,48.9,29.97,ENE,75,0.0,0.0,92,0.00,,,0.03,Wunderground v.1.15,2013-06-11 05:37:00,
2013-06-10 22:42:00,51.1,48.9,29.97,ENE,75,0.0,0.0,92,0.00,,,0.03,Wunderground v.1.15,2013-06-11 05:42:00,
2013-06-10 22:47:00,50.9,48.4,29.97,ENE,75,0.0,0.0,91,0.00,,,0.03,Wunderground v.1.15,2013-06-11 05:47:00,
2013-06-10 22:52:00,50.9,48.7,29.97,ENE,75,0.0,0.0,92,0.00,,,0.03,Wunderground v.1.15,2013-06-11 05:52:00,
2013-06-10 22:57:00,50.9,48.9,29.97,ENE,75,0.0,0.0,93,0.00,,,0.03,Wunderground v.1.15,2013-06-11 05:57:00,
2013-06-10 23:02:00,50.9,48.9,29.97,ENE,75,0.0,0.0,93,0.00,,,0.03,Wunderground v.1.15,2013-06-11 06:02:00,
2013-06-10 23:07:00,50.6,48.7,29.97,ENE,75,0.0,0.0,93,0.00,,,0.03,Wunderground v.1.15,2013-06-11 06:07:00,
2013-06-10 23:12:00,50.6,48.9,29.97,ENE,75,0.0,0.0,94,0.00,,,0.03,Wunderground v.1.15,2013-06-11 06:12:00,
2013-06-10 23:17:00,50.8,49.1,29.97,ENE,75,0.0,0.0,94,0.00,,,0.03,Wunderground v.1.15,2013-06-11 06:17:00,
2013-06-10 23:22:00,50.5,48.6,29.97,ENE,75,0.0,0.0,93,0.00,,,0.03,Wunderground v.1.15,2013-06-11 06:22:00,
2013-06-10 23:27:00,50.4,48.5,29.97,ENE,75,0.0,0.0,93,0.00,,,0.03,Wunderground v.1.15,2013-06-11 06:27:00,
2013-06-10 23:32:00,50.2,48.3,29.96,ENE,75,0.0,0.0,93,0.00,,,0.03,Wunderground v.1.15,2013-06-11 06:32:00,
2013-06-10 23:37:00,50.1,48.2,29.96,ENE,75,0.0,0.0,93,0.00,,,0.03,Wunderground v.1.15,2013-06-11 06:37:00,
2013-06-10 23:42:00,50.2,48.5,29.97,ENE,75,0.0,0.0,94,0.00,,,0.03,Wunderground v.1.15,2013-06-11 06:42:00,
2013-06-10 23:47:00,50.3,48.6,29.97,ENE,75,0.0,0.0,94,0.00,,,0.03,Wunderground v.1.15,2013-06-11 06:47:00,
2013-06-10 23:52:00,50.1,48.2,29.97,ENE,75,0.0,0.0,93,0.00,,,0.03,Wunderground v.1.15,2013-06-11 06:52:00,
2013-06-10 23:57:00,49.9,48.0,29.96,ENE,75,0.0,0.0,93,0.00,,,0.00,Wunderground v.1.15,2013-06-11 06:57:00,